Weather History for Iron Mountain, MI

Change the Weather History Date:

Wednesday, June 19, 2013

  Actual Average Record
Temperature  
Mean Temperature 58 °F -  
Max Temperature 78 °F 75 °F 94 °F (1933)
Min Temperature 41 °F 49 °F 38 °F (1950)
Degree Days  
Heating Degree Days 7    
Growing Degree Days 8 (Base 50)    
Moisture  
Dew Point 41 °F    
Average Humidity 53    
Maximum Humidity 89    
Minimum Humidity 26    
Precipitation  
Precipitation 0.00 in - - ()
Sea Level Pressure  
Sea Level Pressure 30.10 in    
Wind  
Wind Speed 3 mph (SSE)    
Max Wind Speed 9 mph    
Max Gust Speed -    
Visibility 10 miles    
Events      
Averages and records for this station are not official NWS values.
T = Trace of Precipitation, MM = Missing Value Source: NWS Daily Summary

Daily Weather History Graph

Daily Weather History Graph

Search for Another Location

Airport:

Trip Planner

Search our weather history database for the weather conditions in past years. The results will help you decide how hot, cold, wet, or windy it might be!

Date:

Astronomy

Jun. 19, 2013 Rise Set
Actual Time 5:02 AM CDT 8:45 PM CDT
Civil Twilight 4:23 AM CDT 9:24 PM CDT
Nautical Twilight 3:32 AM CDT 10:15 PM CDT
Astronomical Twilight 2:20 AM CDT 11:27 PM CDT
Moon 4:29 PM CDT (6/19) 1:57 AM CDT (6/19)
Length of Visible Light 17h 00m
Length of Day
15h 43m
Waxing Gibbous, 80% of the Moon is Illuminated
Jun 19
Waxing Gibbous
Jun 23
Full
Jun 29
Last Quarter
Jul 8
New
Jul 15
First Quarter

Hourly Weather History & Observations

Time (CDT) Temp. Dew Point Humidity Pressure Visibility Wind Dir Wind Speed Gust Speed Precip Events Conditions
12:54 AM 46.0 °F 39.9 °F 79% 30.12 in 10.0 mi Calm Calm - N/A   Clear
1:54 AM 44.1 °F 39.9 °F 85% 30.14 in 10.0 mi Calm Calm - N/A   Clear
2:54 AM 43.0 °F 39.0 °F 86% 30.13 in 10.0 mi Calm Calm - N/A   Clear
3:54 AM 42.1 °F 39.0 °F 89% 30.14 in 10.0 mi Calm Calm - N/A   Clear
4:54 AM 41.0 °F 37.9 °F 89% 30.15 in 10.0 mi Calm Calm - N/A   Clear
5:54 AM 44.1 °F 39.9 °F 85% 30.14 in 10.0 mi Calm Calm - N/A   Clear
6:54 AM 50.0 °F 42.1 °F 74% 30.14 in 10.0 mi Calm Calm - N/A   Clear
7:54 AM 57.9 °F 42.1 °F 56% 30.16 in 10.0 mi Calm Calm - N/A   Clear
8:54 AM 64.0 °F 41.0 °F 43% 30.15 in 10.0 mi South 6.9 mph - N/A   Clear
9:54 AM 66.9 °F 39.0 °F 36% 30.14 in 10.0 mi SSW 6.9 mph - N/A   Clear
10:54 AM 70.0 °F 37.9 °F 31% 30.12 in 10.0 mi SSE 9.2 mph - N/A   Clear
11:54 AM 73.0 °F 36.0 °F 26% 30.12 in 10.0 mi SSE 6.9 mph - N/A   Clear
12:54 PM 73.9 °F 39.0 °F 28% 30.10 in 10.0 mi South 4.6 mph - N/A   Clear
1:54 PM 75.0 °F 39.0 °F 27% 30.08 in 10.0 mi SE 8.1 mph - N/A   Clear
2:54 PM 75.0 °F 37.9 °F 26% 30.07 in 10.0 mi ESE 9.2 mph - N/A   Partly Cloudy
3:54 PM 75.9 °F 39.0 °F 26% 30.06 in 10.0 mi SSE 4.6 mph - N/A   Clear
4:54 PM 75.9 °F 39.0 °F 26% 30.05 in 10.0 mi Variable 6.9 mph - N/A   Clear
5:54 PM 75.9 °F 42.1 °F 30% 30.04 in 10.0 mi South 6.9 mph - N/A   Mostly Cloudy
6:54 PM 73.9 °F 45.0 °F 35% 30.04 in 10.0 mi SSW 5.8 mph - N/A   Clear
7:54 PM 71.1 °F 48.0 °F 44% 30.04 in 10.0 mi South 4.6 mph - N/A   Clear
8:54 PM 64.9 °F 46.9 °F 52% 30.04 in 10.0 mi South 5.8 mph - N/A   Clear
9:54 PM 64.0 °F 48.0 °F 56% 30.06 in 10.0 mi ESE 6.9 mph - N/A   Clear
10:54 PM 59.0 °F 48.9 °F 69% 30.07 in 10.0 mi SE 4.6 mph - N/A   Clear
11:54 PM 59.0 °F 48.9 °F 69% 30.07 in 10.0 mi SE 4.6 mph - N/A   Clear